Time,TemperatureF,DewpointF,PressureIn,WindDirection,WindDirectionDegrees,WindSpeedMPH,WindSpeedGustMPH,Humidity,HourlyPrecipIn,Conditions,Clouds,dailyrainin,SoftwareType,DateUTC
2013-08-09 00:00:00,60.3,41.9,30.05,NE,38,0.0,0.0,50,0.00,,---,0.00,VWS V14.00,2013-08-09 07:00:00,
2013-08-09 00:10:00,60.5,42.0,30.05,NE,38,0.0,0.0,50,0.00,,---,0.00,VWS V14.00,2013-08-09 07:10:00,
2013-08-09 00:20:00,60.0,42.1,30.05,NE,38,0.0,0.0,52,0.00,,---,0.00,VWS V14.00,2013-08-09 07:20:00,
2013-08-09 00:25:00,59.9,42.0,30.05,NE,38,0.0,0.0,52,0.00,,---,0.00,VWS V14.00,2013-08-09 07:25:00,
2013-08-09 00:30:00,59.8,41.9,30.05,NE,38,0.0,0.0,52,0.00,,---,0.00,VWS V14.00,2013-08-09 07:30:00,
2013-08-09 00:35:00,59.7,42.3,30.05,NE,38,0.0,0.0,52,0.00,,---,0.00,VWS V14.00,2013-08-09 07:35:00,
2013-08-09 00:40:00,59.7,41.8,30.05,NE,38,0.0,0.0,52,0.00,,---,0.00,VWS V14.00,2013-08-09 07:40:00,
2013-08-09 00:50:00,59.4,42.0,30.05,NE,38,0.0,0.0,52,0.00,,---,0.00,VWS V14.00,2013-08-09 07:50:00,
2013-08-09 01:00:00,59.1,41.8,30.05,NE,38,0.0,0.0,52,0.00,,---,0.00,VWS V14.00,2013-08-09 08:00:00,
2013-08-09 01:10:00,58.0,41.7,30.04,NE,38,0.0,0.0,54,0.00,,---,0.00,VWS V14.00,2013-08-09 08:10:00,
2013-08-09 01:20:00,57.7,41.4,30.04,NE,38,0.0,0.0,54,0.00,,---,0.00,VWS V14.00,2013-08-09 08:20:00,
2013-08-09 01:25:00,57.3,41.5,30.04,NE,38,0.0,0.0,56,0.00,,---,0.00,VWS V14.00,2013-08-09 08:25:00,
2013-08-09 01:35:00,56.8,40.1,30.04,NE,38,0.0,0.0,54,0.00,,---,0.00,VWS V14.00,2013-08-09 08:35:00,
2013-08-09 01:45:00,56.8,41.1,30.04,NE,38,0.0,0.0,56,0.00,,---,0.00,VWS V14.00,2013-08-09 08:45:00,
2013-08-09 01:50:00,57.1,41.8,30.04,NE,38,0.0,0.0,56,0.00,,---,0.00,VWS V14.00,2013-08-09 08:50:00,
2013-08-09 02:00:00,58.3,42.0,30.04,NE,38,0.0,0.0,54,0.00,,---,0.00,VWS V14.00,2013-08-09 09:00:00,
2013-08-09 02:05:00,58.3,40.5,30.04,NE,38,0.0,0.0,52,0.00,,---,0.00,VWS V14.00,2013-08-09 09:05:00,
2013-08-09 02:15:00,56.2,38.6,30.04,NE,38,0.0,0.0,52,0.00,,---,0.00,VWS V14.00,2013-08-09 09:15:00,
2013-08-09 02:20:00,55.4,37.8,30.03,NE,38,0.0,0.0,52,0.00,,---,0.00,VWS V14.00,2013-08-09 09:20:00,
2013-08-09 02:25:00,55.0,38.0,30.03,NE,38,0.0,0.0,52,0.00,,---,0.00,VWS V14.00,2013-08-09 09:25:00,
2013-08-09 02:30:00,55.0,38.9,30.03,NE,38,0.0,0.0,54,0.00,,---,0.00,VWS V14.00,2013-08-09 09:30:00,
2013-08-09 02:40:00,56.1,39.9,30.03,NE,38,0.0,0.0,54,0.00,,---,0.00,VWS V14.00,2013-08-09 09:40:00,
2013-08-09 02:45:00,56.4,40.2,30.03,NE,38,0.0,0.0,54,0.00,,---,0.00,VWS V14.00,2013-08-09 09:45:00,
2013-08-09 02:55:00,56.2,40.5,30.03,NE,38,0.0,0.0,56,0.00,,---,0.00,VWS V14.00,2013-08-09 09:55:00,
2013-08-09 03:00:00,56.2,39.5,30.03,NE,38,0.0,0.0,54,0.00,,---,0.00,VWS V14.00,2013-08-09 10:00:00,
2013-08-09 03:05:00,56.1,39.9,30.03,NE,38,0.0,0.0,54,0.00,,---,0.00,VWS V14.00,2013-08-09 10:05:00,
2013-08-09 03:15:00,56.6,40.4,30.03,NE,38,0.0,0.0,54,0.00,,---,0.00,VWS V14.00,2013-08-09 10:15:00,
2013-08-09 03:20:00,56.6,40.4,30.03,NE,38,0.0,0.0,54,0.00,,---,0.00,VWS V14.00,2013-08-09 10:20:00,
2013-08-09 03:25:00,56.7,40.5,30.03,NE,38,0.0,0.0,54,0.00,,---,0.00,VWS V14.00,2013-08-09 10:25:00,
2013-08-09 03:30:00,56.5,39.8,30.02,NE,38,0.0,0.0,54,0.00,,---,0.00,VWS V14.00,2013-08-09 10:30:00,
2013-08-09 03:40:00,55.4,39.3,30.02,NE,38,0.0,0.0,54,0.00,,---,0.00,VWS V14.00,2013-08-09 10:40:00,
2013-08-09 03:45:00,54.1,37.6,30.02,NE,38,0.0,0.0,54,0.00,,---,0.00,VWS V14.00,2013-08-09 10:45:00,
2013-08-09 03:50:00,53.0,37.5,30.02,NE,38,0.0,0.0,56,0.00,,---,0.00,VWS V14.00,2013-08-09 10:50:00,
2013-08-09 03:55:00,53.2,39.0,30.02,NE,38,0.0,0.0,58,0.00,,---,0.00,VWS V14.00,2013-08-09 10:55:00,
2013-08-09 04:00:00,54.1,40.3,30.02,NE,38,0.0,0.0,60,0.00,,---,0.00,VWS V14.00,2013-08-09 11:00:00,
2013-08-09 04:05:00,54.5,38.9,30.02,NE,38,0.0,0.0,56,0.00,,---,0.00,VWS V14.00,2013-08-09 11:05:00,
2013-08-09 04:15:00,53.0,37.5,30.02,NE,38,0.0,0.0,56,0.00,,---,0.00,VWS V14.00,2013-08-09 11:15:00,
2013-08-09 04:20:00,53.0,37.5,30.02,NE,38,0.0,0.0,56,0.00,,---,0.00,VWS V14.00,2013-08-09 11:20:00,
2013-08-09 04:25:00,52.7,37.2,30.01,NE,38,0.0,0.0,56,0.00,,---,0.00,VWS V14.00,2013-08-09 11:25:00,
2013-08-09 04:30:00,52.3,37.3,30.01,NE,38,0.0,0.0,56,0.00,,---,0.00,VWS V14.00,2013-08-09 11:30:00,
2013-08-09 04:35:00,52.3,37.3,30.01,NE,38,0.0,0.0,56,0.00,,---,0.00,VWS V14.00,2013-08-09 11:35:00,
2013-08-09 04:40:00,52.4,37.4,30.01,NE,38,0.0,0.0,56,0.00,,---,0.00,VWS V14.00,2013-08-09 11:40:00,
2013-08-09 04:45:00,52.8,37.8,30.01,NE,38,0.0,0.0,56,0.00,,---,0.00,VWS V14.00,2013-08-09 11:45:00,
2013-08-09 04:55:00,53.1,38.5,30.01,NE,38,0.0,0.0,58,0.00,,---,0.00,VWS V14.00,2013-08-09 11:55:00,
2013-08-09 05:00:00,53.2,38.6,30.01,NE,38,0.0,0.0,58,0.00,,---,0.00,VWS V14.00,2013-08-09 12:00:00,
2013-08-09 05:05:00,53.2,38.2,30.01,NE,38,0.0,5.0,56,0.00,,---,0.00,VWS V14.00,2013-08-09 12:05:00,
2013-08-09 05:10:00,53.0,38.0,30.01,NE,38,0.0,0.0,56,0.00,,---,0.00,VWS V14.00,2013-08-09 12:10:00,
2013-08-09 05:15:00,52.9,37.4,30.02,NE,38,0.0,0.0,56,0.00,,---,0.00,VWS V14.00,2013-08-09 12:15:00,
2013-08-09 05:20:00,52.4,37.0,30.01,NE,38,0.0,0.0,56,0.00,,---,0.00,VWS V14.00,2013-08-09 12:20:00,
2013-08-09 05:25:00,52.5,37.5,30.01,NE,38,0.0,0.0,56,0.00,,---,0.00,VWS V14.00,2013-08-09 12:25:00,
2013-08-09 05:30:00,52.9,37.4,30.02,NE,38,0.0,0.0,56,0.00,,---,0.00,VWS V14.00,2013-08-09 12:30:00,
2013-08-09 05:35:00,53.0,38.0,30.01,NE,38,0.0,0.0,56,0.00,,---,0.00,VWS V14.00,2013-08-09 12:35:00,
2013-08-09 05:45:00,54.6,39.0,30.01,NE,38,0.0,0.0,56,0.00,,---,0.00,VWS V14.00,2013-08-09 12:45:00,
2013-08-09 05:50:00,55.3,39.2,30.02,NE,38,0.0,0.0,54,0.00,,---,0.00,VWS V14.00,2013-08-09 12:50:00,
2013-08-09 05:55:00,54.7,37.7,30.02,NE,38,0.0,0.0,52,0.00,,---,0.00,VWS V14.00,2013-08-09 12:55:00,
2013-08-09 06:00:00,53.3,36.9,30.02,NE,38,0.0,0.0,54,0.00,,---,0.00,VWS V14.00,2013-08-09 13:00:00,
2013-08-09 06:05:00,52.8,39.1,30.02,NE,38,0.0,0.0,60,0.00,,---,0.00,VWS V14.00,2013-08-09 13:05:00,
2013-08-09 06:10:00,53.8,38.7,30.02,NE,38,0.0,0.0,56,0.00,,---,0.00,VWS V14.00,2013-08-09 13:10:00,
2013-08-09 06:15:00,54.6,39.0,30.02,NE,38,0.0,0.0,56,0.00,,---,0.00,VWS V14.00,2013-08-09 13:15:00,
2013-08-09 06:20:00,55.1,38.5,30.02,NE,38,0.0,0.0,54,0.00,,---,0.00,VWS V14.00,2013-08-09 13:20:00,
2013-08-09 06:25:00,55.0,38.4,30.02,NE,38,0.0,0.0,54,0.00,,---,0.00,VWS V14.00,2013-08-09 13:25:00,
2013-08-09 06:30:00,54.8,38.2,30.02,NE,38,0.0,0.0,54,0.00,,---,0.00,VWS V14.00,2013-08-09 13:30:00,
2013-08-09 06:35:00,54.3,38.3,30.02,NE,38,0.0,0.0,54,0.00,,---,0.00,VWS V14.00,2013-08-09 13:35:00,
2013-08-09 06:45:00,53.3,36.9,30.03,NE,38,0.0,0.0,54,0.00,,---,0.00,VWS V14.00,2013-08-09 13:45:00,
2013-08-09 06:50:00,52.9,37.4,30.03,NE,38,0.0,0.0,56,0.00,,---,0.00,VWS V14.00,2013-08-09 13:50:00,
2013-08-09 07:00:00,54.3,38.3,30.03,NE,38,0.0,0.0,54,0.00,,---,0.00,VWS V14.00,2013-08-09 14:00:00,
2013-08-09 07:05:00,55.0,38.4,30.03,NE,38,0.0,0.0,54,0.00,,---,0.00,VWS V14.00,2013-08-09 14:05:00,
2013-08-09 07:10:00,55.7,38.6,30.03,NE,38,0.0,0.0,52,0.00,,---,0.00,VWS V14.00,2013-08-09 14:10:00,
2013-08-09 07:15:00,56.0,38.4,30.03,NE,38,0.0,0.0,52,0.00,,---,0.00,VWS V14.00,2013-08-09 14:15:00,
2013-08-09 07:20:00,56.5,38.9,30.03,NE,38,0.0,0.0,52,0.00,,---,0.00,VWS V14.00,2013-08-09 14:20:00,
2013-08-09 07:25:00,56.8,39.1,30.03,NE,38,0.0,0.0,52,0.00,,---,0.00,VWS V14.00,2013-08-09 14:25:00,
2013-08-09 07:30:00,57.8,39.5,30.03,NE,38,0.0,0.0,50,0.00,,---,0.00,VWS V14.00,2013-08-09 14:30:00,
2013-08-09 07:35:00,58.8,39.4,30.03,NE,38,0.0,0.0,48,0.00,,---,0.00,VWS V14.00,2013-08-09 14:35:00,
2013-08-09 07:40:00,59.3,39.4,30.03,NE,38,0.0,0.0,48,0.00,,---,0.00,VWS V14.00,2013-08-09 14:40:00,
2013-08-09 07:45:00,59.5,39.0,30.03,NE,38,0.0,0.0,46,0.00,,---,0.00,VWS V14.00,2013-08-09 14:45:00,
2013-08-09 07:55:00,59.3,38.8,30.03,NE,38,0.0,0.0,46,0.00,,---,0.00,VWS V14.00,2013-08-09 14:55:00,
2013-08-09 08:00:00,59.5,39.0,30.03,NE,38,0.0,0.0,46,0.00,,---,0.00,VWS V14.00,2013-08-09 15:00:00,
2013-08-09 08:05:00,59.6,38.5,30.03,NE,38,0.0,0.0,46,0.00,,---,0.00,VWS V14.00,2013-08-09 15:05:00,
2013-08-09 08:10:00,59.9,38.8,30.03,NE,38,0.0,0.0,46,0.00,,---,0.00,VWS V14.00,2013-08-09 15:10:00,
2013-08-09 08:15:00,60.1,39.0,30.03,NE,38,0.0,0.0,46,0.00,,---,0.00,VWS V14.00,2013-08-09 15:15:00,
2013-08-09 08:20:00,60.5,39.4,30.03,NE,38,0.0,0.0,46,0.00,,---,0.00,VWS V14.00,2013-08-09 15:20:00,
2013-08-09 08:25:00,60.8,39.1,30.03,NE,38,0.0,0.0,44,0.00,,---,0.00,VWS V14.00,2013-08-09 15:25:00,
2013-08-09 08:30:00,61.3,38.9,30.03,NE,38,0.0,0.0,44,0.00,,---,0.00,VWS V14.00,2013-08-09 15:30:00,
2013-08-09 08:35:00,61.6,39.2,30.03,NE,38,0.0,0.0,44,0.00,,---,0.00,VWS V14.00,2013-08-09 15:35:00,
2013-08-09 08:40:00,62.0,39.0,30.03,NE,38,0.0,0.0,42,0.00,,---,0.00,VWS V14.00,2013-08-09 15:40:00,
2013-08-09 08:45:00,62.3,39.8,30.03,NE,38,0.0,0.0,44,0.00,,---,0.00,VWS V14.00,2013-08-09 15:45:00,
2013-08-09 08:50:00,62.4,39.9,30.03,NE,38,0.0,0.0,44,0.00,,---,0.00,VWS V14.00,2013-08-09 15:50:00,
2013-08-09 08:55:00,62.5,40.0,30.03,NE,38,0.0,0.0,44,0.00,,---,0.00,VWS V14.00,2013-08-09 15:55:00,
2013-08-09 09:00:00,62.7,40.2,30.03,NE,38,0.0,0.0,44,0.00,,---,0.00,VWS V14.00,2013-08-09 16:00:00,
2013-08-09 09:05:00,63.0,40.5,30.03,NE,38,0.0,0.0,44,0.00,,---,0.00,VWS V14.00,2013-08-09 16:05:00,
2013-08-09 09:15:00,64.0,40.8,30.02,NE,38,0.0,6.0,42,0.00,,---,0.00,VWS V14.00,2013-08-09 16:15:00,
2013-08-09 09:20:00,64.5,40.6,30.02,NE,38,1.0,5.0,42,0.00,,---,0.00,VWS V14.00,2013-08-09 16:20:00,
2013-08-09 09:25:00,64.8,40.9,30.02,NE,38,2.0,4.0,42,0.00,,---,0.00,VWS V14.00,2013-08-09 16:25:00,
2013-08-09 09:30:00,65.1,41.2,30.02,NE,38,5.0,6.0,42,0.00,,---,0.00,VWS V14.00,2013-08-09 16:30:00,
2013-08-09 09:35:00,65.2,40.6,30.02,NE,38,0.0,5.0,40,0.00,,---,0.00,VWS V14.00,2013-08-09 16:35:00,
2013-08-09 09:40:00,65.6,41.0,30.02,NE,38,0.0,5.0,40,0.00,,---,0.00,VWS V14.00,2013-08-09 16:40:00,
2013-08-09 09:45:00,66.3,41.6,30.02,NE,38,3.0,5.0,40,0.00,,---,0.00,VWS V14.00,2013-08-09 16:45:00,
2013-08-09 09:50:00,66.3,41.0,30.02,NE,38,3.0,7.0,40,0.00,,---,0.00,VWS V14.00,2013-08-09 16:50:00,
2013-08-09 09:55:00,66.5,41.8,30.02,NE,38,5.0,5.0,40,0.00,,---,0.00,VWS V14.00,2013-08-09 16:55:00,
2013-08-09 10:00:00,67.0,41.6,30.02,NE,38,6.0,8.0,40,0.00,,---,0.00,VWS V14.00,2013-08-09 17:00:00,
2013-08-09 10:05:00,67.7,40.9,30.02,NE,38,4.0,7.0,38,0.00,,---,0.00,VWS V14.00,2013-08-09 17:05:00,
2013-08-09 10:10:00,68.2,40.6,30.02,NE,38,1.0,5.0,36,0.00,,---,0.00,VWS V14.00,2013-08-09 17:10:00,
2013-08-09 10:15:00,68.5,40.9,30.02,NE,38,2.0,7.0,36,0.00,,---,0.00,VWS V14.00,2013-08-09 17:15:00,
2013-08-09 10:20:00,68.8,41.8,30.02,NE,38,7.0,11.0,38,0.00,,---,0.00,VWS V14.00,2013-08-09 17:20:00,
2013-08-09 10:30:00,69.2,40.8,30.02,NE,38,0.0,8.0,36,0.00,,---,0.00,VWS V14.00,2013-08-09 17:30:00,
2013-08-09 10:35:00,69.5,41.0,30.02,North,5,0.0,10.0,36,0.00,,---,0.00,VWS V14.00,2013-08-09 17:35:00,
2013-08-09 10:40:00,70.0,41.5,30.02,NNW,341,0.0,11.0,36,0.00,,---,0.00,VWS V14.00,2013-08-09 17:40:00,
2013-08-09 10:45:00,70.2,40.9,30.02,NNW,340,0.0,10.0,34,0.00,,---,0.00,VWS V14.00,2013-08-09 17:45:00,
2013-08-09 10:50:00,70.3,41.0,30.01,NNW,340,0.0,0.0,34,0.00,,---,0.00,VWS V14.00,2013-08-09 17:50:00,
2013-08-09 10:55:00,70.6,40.5,30.01,NNW,331,0.0,0.0,34,0.00,,---,0.00,VWS V14.00,2013-08-09 17:55:00,
2013-08-09 11:00:00,71.0,40.9,30.01,NNW,329,0.0,0.0,34,0.00,,---,0.00,VWS V14.00,2013-08-09 18:00:00,
2013-08-09 11:10:00,72.1,41.0,30.01,NNW,329,0.0,6.0,32,0.00,,---,0.00,VWS V14.00,2013-08-09 18:10:00,
2013-08-09 11:15:00,72.8,41.7,30.01,NNW,329,0.0,10.0,32,0.00,,---,0.00,VWS V14.00,2013-08-09 18:15:00,
2013-08-09 11:20:00,73.5,41.5,30.01,NNW,329,0.0,2.0,32,0.00,,---,0.00,VWS V14.00,2013-08-09 18:20:00,
2013-08-09 11:25:00,73.7,40.8,30.01,NW,323,0.0,7.0,30,0.00,,---,0.00,VWS V14.00,2013-08-09 18:25:00,
2013-08-09 11:35:00,73.2,40.4,30.01,NW,319,0.0,8.0,30,0.00,,---,0.00,VWS V14.00,2013-08-09 18:35:00,
2013-08-09 11:40:00,74.0,39.3,30.00,NW,319,0.0,0.0,28,0.00,,---,0.00,VWS V14.00,2013-08-09 18:40:00,
2013-08-09 11:45:00,75.2,40.3,30.00,NW,319,0.0,0.0,28,0.00,,---,0.00,VWS V14.00,2013-08-09 18:45:00,
2013-08-09 11:50:00,76.1,40.2,30.00,NW,312,0.0,7.0,28,0.00,,---,0.00,VWS V14.00,2013-08-09 18:50:00,
2013-08-09 11:55:00,76.5,37.6,30.00,SSW,198,8.0,13.0,24,0.00,,---,0.00,VWS V14.00,2013-08-09 18:55:00,
2013-08-09 12:00:00,76.4,36.4,30.00,South,190,0.0,9.0,24,0.00,,---,0.00,VWS V14.00,2013-08-09 19:00:00,
2013-08-09 12:05:00,77.1,39.1,30.00,South,191,1.0,5.0,26,0.00,,---,0.00,VWS V14.00,2013-08-09 19:05:00,
2013-08-09 12:10:00,77.2,39.2,30.00,WSW,242,8.0,10.0,26,0.00,,---,0.00,VWS V14.00,2013-08-09 19:10:00,
2013-08-09 12:15:00,77.4,39.4,30.00,WSW,244,4.0,8.0,26,0.00,,---,0.00,VWS V14.00,2013-08-09 19:15:00,
2013-08-09 12:20:00,77.6,38.5,30.00,South,191,9.0,16.0,24,0.00,,---,0.00,VWS V14.00,2013-08-09 19:20:00,
2013-08-09 12:25:00,77.5,36.3,30.00,South,190,7.0,15.0,22,0.00,,---,0.00,VWS V14.00,2013-08-09 19:25:00,
2013-08-09 12:30:00,77.9,37.7,30.00,SSW,196,7.0,14.0,24,0.00,,---,0.00,VWS V14.00,2013-08-09 19:30:00,
2013-08-09 12:35:00,77.9,34.3,30.00,WSW,242,13.0,15.0,20,0.00,,---,0.00,VWS V14.00,2013-08-09 19:35:00,
2013-08-09 12:40:00,77.9,34.3,29.99,WSW,241,12.0,14.0,20,0.00,,---,0.00,VWS V14.00,2013-08-09 19:40:00,
2013-08-09 12:45:00,78.0,31.8,29.99,SW,215,20.0,22.0,18,0.00,,---,0.00,VWS V14.00,2013-08-09 19:45:00,
2013-08-09 12:50:00,79.0,29.8,29.99,SSW,199,14.0,20.0,16,0.00,,---,0.00,VWS V14.00,2013-08-09 19:50:00,
2013-08-09 12:55:00,79.4,31.5,29.99,SSW,208,7.0,14.0,18,0.00,,---,0.00,VWS V14.00,2013-08-09 19:55:00,
2013-08-09 13:00:00,79.2,29.9,29.99,SSW,208,6.0,13.0,16,0.00,,---,0.00,VWS V14.00,2013-08-09 20:00:00,
2013-08-09 13:05:00,79.2,32.8,29.99,WSW,255,7.0,15.0,18,0.00,,---,0.00,VWS V14.00,2013-08-09 20:05:00,
2013-08-09 13:10:00,78.6,33.6,29.99,West,272,0.0,13.0,20,0.00,,---,0.00,VWS V14.00,2013-08-09 20:10:00,
2013-08-09 13:15:00,78.4,33.4,29.99,West,264,14.0,20.0,20,0.00,,---,0.00,VWS V14.00,2013-08-09 20:15:00,
2013-08-09 13:20:00,78.7,33.7,29.99,West,262,0.0,14.0,20,0.00,,---,0.00,VWS V14.00,2013-08-09 20:20:00,
2013-08-09 13:25:00,78.7,34.9,29.99,West,264,6.0,12.0,20,0.00,,---,0.00,VWS V14.00,2013-08-09 20:25:00,
2013-08-09 13:30:00,78.6,36.0,29.99,WNW,292,10.0,14.0,22,0.00,,---,0.00,VWS V14.00,2013-08-09 20:30:00,
2013-08-09 13:35:00,78.2,33.2,29.99,NNW,331,0.0,14.0,20,0.00,,---,0.00,VWS V14.00,2013-08-09 20:35:00,
2013-08-09 13:45:00,78.9,31.1,29.98,NNW,331,8.0,16.0,18,0.00,,---,0.00,VWS V14.00,2013-08-09 20:45:00,
2013-08-09 13:50:00,79.1,29.9,29.98,WNW,303,15.0,16.0,16,0.00,,---,0.00,VWS V14.00,2013-08-09 20:50:00,
2013-08-09 13:55:00,79.1,28.3,29.98,West,262,10.0,19.0,16,0.00,,---,0.00,VWS V14.00,2013-08-09 20:55:00,
2013-08-09 14:00:00,79.3,26.9,29.98,SSW,213,10.0,14.0,14,0.00,,---,0.00,VWS V14.00,2013-08-09 21:00:00,
2013-08-09 14:05:00,79.7,28.8,29.98,SSW,207,0.0,10.0,16,0.00,,---,0.00,VWS V14.00,2013-08-09 21:05:00,
2013-08-09 14:10:00,80.1,30.7,29.98,West,279,11.0,15.0,16,0.00,,---,0.00,VWS V14.00,2013-08-09 21:10:00,
2013-08-09 14:15:00,80.2,29.2,29.98,WNW,288,15.0,21.0,16,0.00,,---,0.00,VWS V14.00,2013-08-09 21:15:00,
2013-08-09 14:20:00,79.8,30.4,29.98,WNW,284,6.0,18.0,16,0.00,,---,0.00,VWS V14.00,2013-08-09 21:20:00,
2013-08-09 14:25:00,80.1,33.5,29.98,West,265,10.0,16.0,18,0.00,,---,0.00,VWS V14.00,2013-08-09 21:25:00,
2013-08-09 14:30:00,80.6,32.5,29.98,West,267,12.0,15.0,18,0.00,,---,0.00,VWS V14.00,2013-08-09 21:30:00,
2013-08-09 14:40:00,80.4,30.9,29.98,West,269,0.0,18.0,16,0.00,,---,0.00,VWS V14.00,2013-08-09 21:40:00,
2013-08-09 14:50:00,80.7,31.1,29.97,NNW,344,12.0,18.0,16,0.00,,---,0.00,VWS V14.00,2013-08-09 21:50:00,
2013-08-09 14:55:00,80.4,29.4,29.97,WNW,298,13.0,22.0,16,0.00,,---,0.00,VWS V14.00,2013-08-09 21:55:00,
2013-08-09 15:00:00,80.1,29.1,29.97,West,279,14.0,23.0,16,0.00,,---,0.00,VWS V14.00,2013-08-09 22:00:00,
2013-08-09 15:10:00,81.3,31.6,29.97,West,265,7.0,13.0,16,0.00,,---,0.00,VWS V14.00,2013-08-09 22:10:00,
2013-08-09 15:15:00,81.1,31.5,29.97,WNW,296,15.0,20.0,16,0.00,,---,0.00,VWS V14.00,2013-08-09 22:15:00,
2013-08-09 15:20:00,80.8,29.7,29.97,WNW,293,14.0,20.0,16,0.00,,---,0.00,VWS V14.00,2013-08-09 22:20:00,
2013-08-09 15:25:00,80.4,29.4,29.97,WNW,299,10.0,23.0,16,0.00,,---,0.00,VWS V14.00,2013-08-09 22:25:00,
2013-08-09 15:30:00,80.1,29.1,29.97,WNW,286,18.0,21.0,16,0.00,,---,0.00,VWS V14.00,2013-08-09 22:30:00,
2013-08-09 15:35:00,80.0,29.0,29.97,WNW,284,11.0,20.0,16,0.00,,---,0.00,VWS V14.00,2013-08-09 22:35:00,
2013-08-09 15:40:00,80.2,29.2,29.97,West,271,11.0,15.0,16,0.00,,---,0.00,VWS V14.00,2013-08-09 22:40:00,
2013-08-09 15:45:00,80.2,30.7,29.97,WSW,239,8.0,21.0,16,0.00,,---,0.00,VWS V14.00,2013-08-09 22:45:00,
2013-08-09 15:50:00,80.0,30.6,29.97,West,260,5.0,13.0,16,0.00,,---,0.00,VWS V14.00,2013-08-09 22:50:00,
2013-08-09 15:55:00,81.1,28.3,29.97,SW,224,7.0,14.0,14,0.00,,---,0.00,VWS V14.00,2013-08-09 22:55:00,
2013-08-09 16:00:00,82.3,25.6,29.97,WSW,239,9.0,18.0,12,0.00,,---,0.00,VWS V14.00,2013-08-09 23:00:00,
2013-08-09 16:10:00,82.0,27.3,29.97,SW,226,24.0,27.0,14,0.00,,---,0.00,VWS V14.00,2013-08-09 23:10:00,
2013-08-09 16:15:00,81.6,27.0,29.97,SW,214,12.0,26.0,14,0.00,,---,0.00,VWS V14.00,2013-08-09 23:15:00,
2013-08-09 16:20:00,81.6,27.0,29.97,WSW,246,13.0,25.0,14,0.00,,---,0.00,VWS V14.00,2013-08-09 23:20:00,
2013-08-09 16:25:00,82.1,27.4,29.97,SW,214,14.0,26.0,14,0.00,,---,0.00,VWS V14.00,2013-08-09 23:25:00,
2013-08-09 16:30:00,81.8,27.1,29.97,SSW,213,16.0,24.0,14,0.00,,---,0.00,VWS V14.00,2013-08-09 23:30:00,
2013-08-09 16:35:00,81.8,27.1,29.97,SW,219,25.0,25.0,14,0.00,,---,0.00,VWS V14.00,2013-08-09 23:35:00,
2013-08-09 16:45:00,81.5,28.6,29.97,SW,221,22.0,23.0,14,0.00,,---,0.00,VWS V14.00,2013-08-09 23:45:00,
2013-08-09 16:50:00,81.2,28.4,29.97,SW,223,18.0,24.0,14,0.00,,---,0.00,VWS V14.00,2013-08-09 23:50:00,
2013-08-09 16:55:00,80.9,28.1,29.97,SW,226,23.0,24.0,14,0.00,,---,0.00,VWS V14.00,2013-08-09 23:55:00,
2013-08-09 17:00:00,80.7,28.0,29.97,SW,225,14.0,24.0,14,0.00,,---,0.00,VWS V14.00,2013-08-10 00:00:00,
2013-08-09 17:05:00,80.6,29.5,29.97,SW,215,12.0,22.0,16,0.00,,---,0.00,VWS V14.00,2013-08-10 00:05:00,
2013-08-09 17:10:00,80.8,31.2,29.97,SSW,211,21.0,24.0,16,0.00,,---,0.00,VWS V14.00,2013-08-10 00:10:00,
2013-08-09 17:15:00,80.5,31.0,29.97,SSW,211,22.0,28.0,16,0.00,,---,0.00,VWS V14.00,2013-08-10 00:15:00,
2013-08-09 17:25:00,79.8,30.4,29.97,SW,225,16.0,23.0,16,0.00,,---,0.00,VWS V14.00,2013-08-10 00:25:00,
2013-08-09 17:30:00,79.6,31.7,29.97,SW,218,14.0,25.0,18,0.00,,---,0.00,VWS V14.00,2013-08-10 00:30:00,
2013-08-09 17:35:00,80.4,32.4,29.98,SW,223,19.0,23.0,18,0.00,,---,0.00,VWS V14.00,2013-08-10 00:35:00,
2013-08-09 17:40:00,80.3,33.7,29.98,SSW,198,13.0,25.0,18,0.00,,---,0.00,VWS V14.00,2013-08-10 00:40:00,
2013-08-09 17:45:00,79.7,33.2,29.98,SSW,213,8.0,20.0,18,0.00,,---,0.00,VWS V14.00,2013-08-10 00:45:00,
2013-08-09 17:55:00,79.1,32.7,29.98,SW,232,14.0,21.0,18,0.00,,---,0.00,VWS V14.00,2013-08-10 00:55:00,
2013-08-09 18:00:00,77.7,32.8,29.99,SW,218,10.0,23.0,20,0.00,,---,0.00,VWS V14.00,2013-08-10 01:00:00,
2013-08-09 18:05:00,77.4,32.6,29.98,SW,226,11.0,14.0,20,0.00,,---,0.00,VWS V14.00,2013-08-10 01:05:00,
2013-08-09 18:15:00,76.9,33.4,29.99,WSW,251,5.0,20.0,20,0.00,,---,0.00,VWS V14.00,2013-08-10 01:15:00,
2013-08-09 18:20:00,76.2,37.3,29.99,WSW,255,6.0,16.0,24,0.00,,---,0.00,VWS V14.00,2013-08-10 01:20:00,
2013-08-09 18:25:00,75.2,39.4,29.99,West,276,10.0,12.0,28,0.00,,---,0.00,VWS V14.00,2013-08-10 01:25:00,
2013-08-09 18:35:00,74.9,38.2,29.99,West,269,6.0,14.0,26,0.00,,---,0.00,VWS V14.00,2013-08-10 01:35:00,
2013-08-09 18:40:00,75.0,37.3,29.99,West,263,13.0,15.0,26,0.00,,---,0.00,VWS V14.00,2013-08-10 01:40:00,
2013-08-09 18:45:00,74.9,38.2,29.99,West,265,12.0,15.0,26,0.00,,---,0.00,VWS V14.00,2013-08-10 01:45:00,
2013-08-09 18:50:00,74.6,38.9,29.99,West,276,9.0,14.0,28,0.00,,---,0.00,VWS V14.00,2013-08-10 01:50:00,
2013-08-09 19:00:00,74.3,38.7,29.99,West,275,9.0,13.0,28,0.00,,---,0.00,VWS V14.00,2013-08-10 02:00:00,
2013-08-09 19:10:00,73.6,39.0,30.00,West,267,7.0,16.0,28,0.00,,---,0.00,VWS V14.00,2013-08-10 02:10:00,
2013-08-09 19:15:00,73.1,39.4,30.00,West,268,9.0,12.0,30,0.00,,---,0.00,VWS V14.00,2013-08-10 02:15:00,
2013-08-09 19:25:00,73.1,38.5,30.00,West,268,6.0,7.0,28,0.00,,---,0.00,VWS V14.00,2013-08-10 02:25:00,
2013-08-09 19:35:00,72.4,37.9,30.01,West,268,4.0,8.0,28,0.00,,---,0.00,VWS V14.00,2013-08-10 02:35:00,
2013-08-09 19:40:00,72.0,36.7,30.01,West,268,5.0,8.0,28,0.00,,---,0.00,VWS V14.00,2013-08-10 02:40:00,
2013-08-09 19:50:00,71.0,36.7,30.01,West,268,4.0,7.0,28,0.00,,---,0.00,VWS V14.00,2013-08-10 02:50:00,
2013-08-09 19:55:00,70.5,36.3,30.02,West,268,0.0,4.0,28,0.00,,---,0.00,VWS V14.00,2013-08-10 02:55:00,
2013-08-09 20:00:00,70.0,34.0,30.02,West,268,0.0,0.0,26,0.00,,---,0.00,VWS V14.00,2013-08-10 03:00:00,
2013-08-09 20:05:00,69.8,33.9,30.02,West,259,11.0,11.0,26,0.00,,---,0.00,VWS V14.00,2013-08-10 03:05:00,
2013-08-09 20:10:00,69.6,33.7,30.02,WSW,248,4.0,11.0,26,0.00,,---,0.00,VWS V14.00,2013-08-10 03:10:00,
2013-08-09 20:15:00,69.3,33.5,30.02,WSW,248,0.0,5.0,26,0.00,,---,0.00,VWS V14.00,2013-08-10 03:15:00,
2013-08-09 20:20:00,68.9,34.0,30.02,WSW,248,0.0,1.0,28,0.00,,---,0.00,VWS V14.00,2013-08-10 03:20:00,
2013-08-09 20:30:00,68.0,34.2,30.02,WSW,248,0.0,0.0,28,0.00,,---,0.00,VWS V14.00,2013-08-10 03:30:00,
2013-08-09 20:40:00,67.3,34.4,30.03,WSW,248,0.0,0.0,30,0.00,,---,0.00,VWS V14.00,2013-08-10 03:40:00,
2013-08-09 20:45:00,67.0,34.2,30.03,WSW,248,0.0,0.0,30,0.00,,---,0.00,VWS V14.00,2013-08-10 03:45:00,
2013-08-09 20:50:00,66.8,34.0,30.02,WSW,248,0.0,0.0,30,0.00,,---,0.00,VWS V14.00,2013-08-10 03:50:00,
2013-08-09 20:55:00,66.7,33.9,30.03,SSW,209,8.0,10.0,30,0.00,,---,0.00,VWS V14.00,2013-08-10 03:55:00,
2013-08-09 21:00:00,66.6,33.8,30.03,South,175,9.0,18.0,30,0.00,,---,0.00,VWS V14.00,2013-08-10 04:00:00,
2013-08-09 21:05:00,66.5,33.7,30.03,South,174,10.0,15.0,30,0.00,,---,0.00,VWS V14.00,2013-08-10 04:05:00,
2013-08-09 21:10:00,66.3,33.5,30.03,South,175,14.0,15.0,30,0.00,,---,0.00,VWS V14.00,2013-08-10 04:10:00,
2013-08-09 21:15:00,66.2,33.5,30.03,South,174,10.0,16.0,30,0.00,,---,0.00,VWS V14.00,2013-08-10 04:15:00,
2013-08-09 21:20:00,66.1,33.4,30.03,South,178,12.0,18.0,30,0.00,,---,0.00,VWS V14.00,2013-08-10 04:20:00,
2013-08-09 21:25:00,66.0,33.3,30.03,South,176,11.0,19.0,30,0.00,,---,0.00,VWS V14.00,2013-08-10 04:25:00,
2013-08-09 21:30:00,66.0,32.4,30.03,South,173,11.0,22.0,28,0.00,,---,0.00,VWS V14.00,2013-08-10 04:30:00,
2013-08-09 21:35:00,66.0,33.3,30.03,South,174,12.0,19.0,30,0.00,,---,0.00,VWS V14.00,2013-08-10 04:35:00,
2013-08-09 21:40:00,66.0,33.3,30.03,South,171,13.0,21.0,30,0.00,,---,0.00,VWS V14.00,2013-08-10 04:40:00,
2013-08-09 21:45:00,65.9,33.2,30.03,South,178,12.0,19.0,30,0.00,,---,0.00,VWS V14.00,2013-08-10 04:45:00,
2013-08-09 21:50:00,65.7,33.0,30.03,South,172,8.0,18.0,30,0.00,,---,0.00,VWS V14.00,2013-08-10 04:50:00,
2013-08-09 21:55:00,65.2,32.6,30.03,SSE,162,8.0,14.0,30,0.00,,---,0.00,VWS V14.00,2013-08-10 04:55:00,
2013-08-09 22:00:00,65.2,32.6,30.03,South,169,8.0,18.0,30,0.00,,---,0.00,VWS V14.00,2013-08-10 05:00:00,
2013-08-09 22:10:00,64.8,32.2,30.04,South,173,7.0,12.0,30,0.00,,---,0.00,VWS V14.00,2013-08-10 05:10:00,
2013-08-09 22:15:00,64.9,32.3,30.04,South,180,6.0,18.0,30,0.00,,---,0.00,VWS V14.00,2013-08-10 05:15:00,
2013-08-09 22:25:00,64.3,31.8,30.04,South,171,0.0,12.0,30,0.00,,---,0.00,VWS V14.00,2013-08-10 05:25:00,
2013-08-09 22:30:00,63.9,32.3,30.04,South,171,0.0,4.0,30,0.00,,---,0.00,VWS V14.00,2013-08-10 05:30:00,
2013-08-09 22:35:00,63.4,31.9,30.04,South,169,0.0,0.0,30,0.00,,---,0.00,VWS V14.00,2013-08-10 05:35:00,
2013-08-09 22:40:00,63.7,31.3,30.04,South,178,0.0,9.0,30,0.00,,---,0.00,VWS V14.00,2013-08-10 05:40:00,
2013-08-09 22:45:00,63.5,31.1,30.05,South,178,0.0,0.0,30,0.00,,---,0.00,VWS V14.00,2013-08-10 05:45:00,
2013-08-09 22:50:00,63.1,31.6,30.05,South,178,0.0,0.0,30,0.00,,---,0.00,VWS V14.00,2013-08-10 05:50:00,
2013-08-09 23:00:00,62.2,31.6,30.05,South,178,0.0,0.0,32,0.00,,---,0.00,VWS V14.00,2013-08-10 06:00:00,
2013-08-09 23:05:00,61.9,31.4,30.05,South,178,0.0,0.0,32,0.00,,---,0.00,VWS V14.00,2013-08-10 06:05:00,
2013-08-09 23:10:00,61.0,31.3,30.05,South,178,0.0,0.0,32,0.00,,---,0.00,VWS V14.00,2013-08-10 06:10:00,
2013-08-09 23:15:00,60.4,31.6,30.05,South,178,0.0,0.0,34,0.00,,---,0.00,VWS V14.00,2013-08-10 06:15:00,
2013-08-09 23:20:00,60.0,31.2,30.05,South,178,0.0,0.0,34,0.00,,---,0.00,VWS V14.00,2013-08-10 06:20:00,
2013-08-09 23:25:00,59.6,30.9,30.05,South,178,0.0,0.0,34,0.00,,---,0.00,VWS V14.00,2013-08-10 06:25:00,
2013-08-09 23:30:00,58.7,31.5,30.06,South,175,0.0,0.0,36,0.00,,---,0.00,VWS V14.00,2013-08-10 06:30:00,
2013-08-09 23:35:00,58.2,31.7,30.06,South,175,0.0,0.0,36,0.00,,---,0.00,VWS V14.00,2013-08-10 06:35:00,
2013-08-09 23:40:00,57.4,31.0,30.06,South,171,0.0,0.0,36,0.00,,---,0.00,VWS V14.00,2013-08-10 06:40:00,
2013-08-09 23:45:00,57.1,30.8,30.06,SSE,159,0.0,4.0,36,0.00,,---,0.00,VWS V14.00,2013-08-10 06:45:00,
2013-08-09 23:55:00,56.8,31.2,30.06,SSE,152,0.0,0.0,38,0.00,,---,0.00,VWS V14.00,2013-08-10 06:55:00,